Time,TemperatureF,DewpointF,PressureIn,WindDirection,WindDirectionDegrees,WindSpeedMPH,WindSpeedGustMPH,Humidity,HourlyPrecipIn,Conditions,Clouds,dailyrainin,SoftwareType,DateUTC
2013-09-12 03:21:00,48.0,38.0,-100.00,East,95,20.0,33.0,67,-99.99,,,-99.99,,2013-09-12 09:21:00,
2013-09-12 05:22:00,47.0,37.0,-100.00,East,85,21.0,32.0,69,-99.99,,,-99.99,,2013-09-12 11:22:00,
2013-09-12 06:21:00,46.0,39.0,-100.00,ENE,76,18.0,27.0,75,-99.99,,,-99.99,,2013-09-12 12:21:00,
2013-09-12 06:52:00,46.0,40.0,-100.00,ENE,69,14.0,24.0,78,-99.99,,,-99.99,,2013-09-12 12:52:00,
2013-09-12 07:22:00,44.0,39.0,-100.00,ENE,59,11.0,19.0,84,-99.99,,,-99.99,,2013-09-12 13:22:00,
2013-09-12 08:22:00,44.0,39.0,-100.00,ENE,72,16.0,25.0,84,-99.99,,,-99.99,,2013-09-12 14:22:00,
2013-09-12 09:22:00,43.0,38.0,-100.00,NE,48,12.0,23.0,81,-99.99,,,-99.99,,2013-09-12 15:22:00,
2013-09-12 10:23:00,43.0,38.0,-100.00,NNE,33,13.0,22.0,83,-99.99,,,-99.99,,2013-09-12 16:23:00,
2013-09-12 11:23:00,44.0,37.0,-100.00,NNE,33,9.0,20.0,76,-99.99,,,-99.99,,2013-09-12 17:23:00,
2013-09-12 12:22:00,46.0,37.0,-100.00,NE,37,9.0,20.0,71,-99.99,,,-99.99,,2013-09-12 18:22:00,
2013-09-12 13:22:00,46.0,37.0,-100.00,NE,34,14.0,26.0,72,-99.99,,,-99.99,,2013-09-12 19:22:00,
2013-09-12 14:22:00,49.0,39.0,-100.00,NE,38,7.0,17.0,68,-99.99,,,-99.99,,2013-09-12 20:22:00,
2013-09-12 15:21:00,51.0,39.0,-100.00,NE,51,6.0,12.0,64,-99.99,,,-99.99,,2013-09-12 21:21:00,
2013-09-12 16:24:00,51.0,40.0,-100.00,East,82,6.0,12.0,66,-99.99,,,-99.99,,2013-09-12 22:24:00,
2013-09-12 17:23:00,52.0,41.0,-100.00,ENE,73,4.0,10.0,65,-99.99,,,-99.99,,2013-09-12 23:23:00,
2013-09-12 18:22:00,52.0,41.0,-100.00,ENE,75,10.0,17.0,65,-99.99,,,-99.99,,2013-09-13 00:22:00,
2013-09-12 19:22:00,47.0,41.0,-100.00,NNE,26,11.0,17.0,78,-99.99,,,-99.99,,2013-09-13 01:22:00,
2013-09-12 20:22:00,49.0,40.0,-100.00,SE,126,9.0,13.0,70,-99.99,,,-99.99,,2013-09-13 02:22:00,
2013-09-12 20:32:00,49.0,40.0,-100.00,SE,126,9.0,13.0,70,-99.99,,,-99.99,,2013-09-13 02:32:00,
2013-09-12 21:22:00,47.0,39.0,-100.00,NE,50,8.0,15.0,73,-99.99,,,-99.99,,2013-09-13 03:22:00,